Location: Buckland
(65.9785°N, 161.1281°W)
Time: 04:04:05
(UTC+00:00)

Transit 4A - Pass Details

Date: 30 November 2020
Orbit: 864 x 980 km, 66.8° (Epoch: 26 January)

Event Time Altitude Azimuth Distance (km) Brightness Sun altitude
Rises 04:51:42 0° 309° (NW) 3,691 11.7 -21.6°
Reaches altitude 10° 04:57:01 10° 272° (W) 2,722 11.5 -22.2°
Maximum altitude 04:58:04 10° 263° (W) 2,684 11.4 -22.3°
Drops below altitude 10° 04:59:07 10° 253° (WSW) 2,710 11.4 -22.4°
Sets 05:04:22 0° 216° (SW) 3,622 11.5 -22.9°
